DateTimeUTC,F1_A11,F1_S11,BsB_S11,BsG_S11,BsR_S11,BbsB_S11,BbsG_S11,BbsR_S11,BaB_A11,BaG_A11,BaR_A11,Tu_S11,T_S11,Uu_S11,U_S11,P_S11,T1_A11
2021-08-24T16:00:00Z,00000200,20000000,,,,,,,0000.19,-000.08,0000.21,19.5,26.0,08.5,05.7,0679.7,31.1
2021-08-24T16:01:00Z,00000200,20000000,,,,,,,0000.06,0000.16,-000.03,19.5,26.0,08.5,05.7,0679.7,31.1
2021-08-24T16:02:00Z,00000200,20000000,,,,,,,0000.34,0000.18,0000.16,19.5,26.0,08.5,05.7,0679.7,31.0
2021-08-24T16:03:00Z,00000200,60000000,,,,,,,0001.08,0000.80,0000.76,19.5,26.0,08.5,05.7,0679.7,31.1
2021-08-24T16:04:00Z,00000200,40000000,0006.43,0004.24,0002.84,0000.85,0000.90,0000.40,0000.90,0000.93,0000.55,19.6,25.9,08.8,06.0,0680.6,31.1
2021-08-24T16:05:00Z,00000200,00000000,0006.25,0004.64,0002.82,0000.58,0000.47,0000.48,0001.20,0001.00,0001.29,19.6,25.8,08.7,06.0,0680.7,31.0
2021-08-24T16:06:00Z,00000200,00000000,0006.52,0004.78,0003.29,0000.78,0000.65,0000.64,0000.92,0001.28,0000.28,19.6,25.8,08.8,06.0,0680.7,31.1
2021-08-24T16:07:00Z,00000200,00000000,0005.74,0004.03,0003.20,0000.64,0000.75,0000.55,0001.03,0000.41,0000.98,19.6,25.8,08.7,06.0,0680.6,31.0
2021-08-24T16:08:00Z,00000200,00000000,0006.32,0004.27,0002.63,0000.44,0000.42,0000.77,0000.92,0001.42,0000.62,19.6,25.8,08.5,05.8,0680.6,31.0
2021-08-24T16:09:00Z,00000200,00000000,0006.56,0004.80,0002.67,0000.86,0000.32,0000.42,0001.32,0001.32,0001.08,19.6,25.8,08.7,05.9,0680.6,31.0
2021-08-24T16:10:00Z,00000200,00000000,0005.77,0004.23,0003.05,0000.47,0000.51,0000.74,0001.31,0000.70,0000.90,19.6,25.8,08.6,05.9,0680.6,31.1
2021-08-24T16:11:00Z,00000200,00000000,0006.14,0004.48,0002.98,0001.42,0000.22,0000.53,0000.92,0001.15,0000.92,19.6,25.8,08.6,05.9,0680.5,31.1
2021-08-24T16:12:00Z,00000200,00000000,0006.10,0004.45,0002.82,0000.38,0000.74,0000.63,0001.36,0001.37,0000.96,19.6,25.8,08.6,05.9,0680.6,31.1
2021-08-24T16:13:00Z,00000200,00000000,0005.95,0004.28,0002.97,0000.59,0000.52,0000.34,0000.69,0001.05,0000.86,19.6,25.8,08.5,05.9,0680.5,31.1
2021-08-24T16:14:00Z,00000200,00000000,0005.86,0004.38,0003.05,0001.06,0000.47,0000.75,0001.44,0000.99,0000.36,19.6,25.8,08.6,05.9,0680.5,31.1
2021-08-24T16:15:00Z,00000200,00000000,0005.58,0004.17,0003.22,0000.97,0000.51,0000.29,0001.50,0000.74,0001.56,19.6,25.8,08.6,05.9,0680.6,31.1
2021-08-24T16:16:00Z,00000200,00000000,0005.84,0004.87,0002.74,0000.54,0000.43,0000.65,0001.10,0001.72,0000.86,19.6,25.8,08.7,06.0,0680.6,31.1
2021-08-24T16:17:00Z,00000200,00000000,0006.44,0004.43,0002.84,0000.70,0000.50,0000.59,0000.97,0000.94,0000.68,19.6,25.8,08.7,06.0,0680.6,31.1
2021-08-24T16:18:00Z,00000200,00000000,0005.03,0004.44,0003.15,0000.17,0000.24,0000.79,0001.18,0001.04,0000.95,19.6,25.7,08.7,06.0,0680.7,31.1
2021-08-24T16:19:00Z,00000200,00000000,0006.15,0004.58,0002.70,0000.80,0000.42,0000.46,0001.43,0001.36,0001.01,19.6,25.8,08.8,06.0,0680.6,31.1
2021-08-24T16:20:00Z,00000200,00000000,0005.49,0004.33,0003.46,0001.07,0000.46,0000.69,0000.98,0000.67,0000.69,19.6,25.8,08.7,06.0,0680.6,31.1
2021-08-24T16:21:00Z,00000200,00000000,0005.64,0004.29,0002.75,0001.03,0000.41,0000.44,0001.53,0001.70,0000.98,19.6,25.7,08.8,06.1,0680.6,31.1
2021-08-24T16:22:00Z,00000200,00000000,0005.88,0004.14,0002.57,0000.25,0000.53,0000.56,0001.20,0000.68,0000.88,19.6,25.7,09.0,06.2,0680.6,31.1
2021-08-24T16:23:00Z,00000200,00000000,0005.76,0004.43,0002.85,0000.77,0000.75,0000.40,0001.01,0001.13,0000.88,19.6,25.8,09.0,06.2,0680.5,31.1
2021-08-24T16:24:00Z,00000200,00000000,0005.53,0003.85,0002.67,0000.50,0000.14,0000.36,0001.28,0000.94,0000.72,19.6,25.7,09.0,06.2,0680.5,31.1
2021-08-24T16:25:00Z,00000200,00000000,0005.54,0004.00,0002.86,0000.99,0000.36,0000.62,0000.83,0001.07,0000.87,19.6,25.7,09.0,06.1,0680.6,31.1
2021-08-24T16:26:00Z,00000200,00000000,0005.61,0003.94,0002.59,0000.13,0000.36,0000.49,0001.32,0001.15,0000.90,19.6,25.8,09.0,06.2,0680.6,31.1
2021-08-24T16:27:00Z,00000200,00000000,0005.37,0003.86,0002.74,0000.45,0000.68,0000.76,0001.05,0000.97,0000.92,19.6,25.8,09.1,06.3,0680.5,31.1
2021-08-24T16:28:00Z,00000200,00000000,0005.99,0004.03,0003.16,0000.54,0000.90,0000.42,0001.08,0000.99,0000.54,19.6,25.7,09.0,06.2,0680.4,31.1
2021-08-24T16:29:00Z,00000200,00000000,0004.92,0004.24,0002.73,0000.05,0000.44,0000.43,0001.13,0001.16,0001.22,19.6,25.7,09.1,06.3,0680.5,31.0
2021-08-24T16:30:00Z,00000200,00000000,0005.20,0004.42,0002.35,-000.09,0000.45,0000.67,0001.15,0000.94,0000.61,19.6,25.7,09.3,06.4,0680.4,31.1
2021-08-24T16:31:00Z,00000200,00000000,0004.85,0004.25,0002.95,0001.14,0000.60,0000.38,0001.19,0001.53,0000.88,19.6,25.7,09.3,06.4,0680.5,31.0
2021-08-24T16:32:00Z,00000200,00000000,0004.99,0003.96,0002.66,0001.01,0000.23,0000.70,0001.41,0000.94,0001.15,19.6,25.7,09.5,06.5,0680.6,31.0
2021-08-24T16:33:00Z,00000200,00000000,0005.01,0004.00,0002.34,0000.31,0000.51,0000.69,0000.64,0000.95,0000.56,19.6,25.7,09.4,06.4,0680.5,31.1
2021-08-24T16:34:00Z,00000200,00000000,0004.84,0003.86,0002.48,0000.62,0000.62,0000.12,0001.46,0000.89,0001.14,19.6,25.7,09.3,06.4,0680.5,31.1
2021-08-24T16:35:00Z,00000200,00000000,0004.12,0003.74,0002.65,0000.92,0000.57,0000.54,0000.89,0000.67,0000.48,19.6,25.7,09.3,06.4,0680.5,31.1
2021-08-24T16:36:00Z,00000200,00000000,0005.61,0003.65,0002.37,0000.58,0000.55,0000.29,0001.03,0001.22,0000.71,19.6,25.7,09.3,06.4,0680.4,31.1
2021-08-24T16:37:00Z,00000200,00000000,0005.47,0004.04,0002.49,0000.44,0000.84,0000.40,0001.00,0001.28,0000.91,19.6,25.7,09.4,06.4,0680.4,31.1
2021-08-24T16:38:00Z,00000200,00000000,0004.26,0003.88,0002.36,0000.44,0000.57,0000.34,0001.12,0000.83,0000.85,19.6,25.7,09.4,06.5,0680.4,31.1
2021-08-24T16:39:00Z,00000200,00000000,0004.87,0003.85,0002.62,0000.72,0000.57,0000.74,0001.12,0001.29,0000.76,19.6,25.7,09.3,06.4,0680.4,31.1
2021-08-24T16:40:00Z,00000200,00000000,0004.76,0003.80,0002.46,0000.37,0000.61,0000.41,0001.07,0000.51,0000.95,19.6,25.7,09.3,06.4,0680.3,31.1
2021-08-24T16:41:00Z,00000200,00000000,0005.68,0003.67,0002.46,0000.37,0000.58,0000.52,0001.10,0001.14,0000.78,19.6,25.7,09.4,06.5,0680.5,31.1
2021-08-24T16:42:00Z,00000200,00000000,0004.80,0003.76,0002.48,0000.44,0000.59,0000.26,0000.83,0000.81,0000.80,19.6,25.7,09.5,06.6,0680.4,31.1
2021-08-24T16:43:00Z,00000200,00000000,0004.86,0004.14,0002.62,0000.29,0000.88,0000.40,0001.45,0001.06,0000.94,19.5,25.7,09.4,06.5,0680.4,31.0
2021-08-24T16:44:00Z,00000200,00000000,0005.00,0004.00,0002.50,-000.09,0000.50,0000.36,0000.95,0000.98,0000.47,19.6,25.7,09.5,06.5,0680.4,31.0
2021-08-24T16:45:00Z,00000200,00000000,0005.52,0003.77,0002.43,0000.59,0000.73,0000.37,0000.53,0000.73,0000.63,19.5,25.7,09.5,06.5,0680.4,31.0
2021-08-24T16:46:00Z,00000200,00000000,0005.65,0004.02,0002.43,0000.79,0000.23,0000.37,0001.43,0000.90,0000.60,19.5,25.7,09.5,06.5,0680.4,31.0
2021-08-24T16:47:00Z,00000200,00000000,0006.11,0004.11,0002.37,0000.79,0000.73,0000.44,0000.55,0000.66,0001.09,19.5,25.7,09.5,06.5,0680.4,31.0
2021-08-24T16:48:00Z,00000200,00000000,0005.55,0003.73,0002.68,0000.34,0000.50,0000.38,0001.31,0001.45,0000.85,19.5,25.7,09.6,06.6,0680.4,31.0
2021-08-24T16:49:00Z,00000200,00000000,0005.27,0003.61,0002.62,0001.12,0000.21,0000.31,0000.88,0000.78,0000.62,19.5,25.7,09.6,06.6,0680.3,31.0
2021-08-24T16:50:00Z,00000200,00000000,0004.80,0003.91,0002.89,0000.75,0000.44,-000.06,0001.47,0001.33,0000.85,19.5,25.7,09.6,06.6,0680.2,31.0
2021-08-24T16:51:00Z,00000200,00000000,0004.76,0004.00,0002.69,0000.80,0000.56,0000.56,0000.88,0000.79,0000.75,19.5,25.7,09.7,06.6,0680.3,31.0
2021-08-24T16:52:00Z,00000200,00000000,0004.96,0003.74,0002.46,0000.51,0000.56,0000.35,0001.24,0000.72,0000.53,19.5,25.7,09.7,06.7,0680.2,31.1
2021-08-24T16:53:00Z,00000200,00000000,0004.65,0003.82,0002.82,0001.17,0000.37,0000.39,0000.82,0001.07,0001.49,19.5,25.7,09.6,06.6,0680.3,31.0
2021-08-24T16:54:00Z,00000200,00000000,0005.15,0003.78,0002.14,0000.97,0000.55,0000.22,0001.46,0001.29,0000.54,19.5,25.6,09.6,06.6,0680.2,31.1
2021-08-24T16:55:00Z,00000200,00000000,0005.42,0004.18,0002.64,0000.21,0000.40,0000.42,0000.81,0001.02,0000.81,19.5,25.7,09.8,06.7,0680.3,31.0
2021-08-24T16:56:00Z,00000200,00000000,0006.14,0004.03,0002.45,0000.87,0000.28,0000.36,0000.94,0000.88,0000.91,19.6,25.7,09.7,06.7,0680.2,31.0
2021-08-24T16:57:00Z,00000200,40000000,,,,,,,0000.24,0000.11,-000.18,19.6,25.7,09.4,06.5,0680.1,31.1
2021-08-24T16:58:00Z,00000200,60000000,,,,,,,0000.19,0000.69,0000.33,19.4,25.8,09.6,06.5,0679.5,31.0
2021-08-24T16:59:00Z,00000200,20000000,,,,,,,0000.07,-000.28,0000.30,19.4,25.9,09.7,06.5,0679.5,31.0
